Time,TemperatureF,DewpointF,PressureIn,WindDirection,WindDirectionDegrees,WindSpeedMPH,WindSpeedGustMPH,Humidity,HourlyPrecipIn,Conditions,Clouds,dailyrainin,SolarRadiationWatts/m^2,SoftwareType,DateUTC
2013-12-20 00:01:00,69.9,64.2,30.17,East,95,0.0,3.0,82,0.00,,FEW021,0.00,0.00,VWS V14.01,2013-12-20 05:01:00,
2013-12-20 00:06:00,70.1,64.4,30.17,East,96,1.0,2.0,82,0.00,,FEW021,0.00,0.00,VWS V14.01,2013-12-20 05:06:00,
2013-12-20 00:11:00,70.4,64.7,30.17,East,96,0.0,2.0,82,0.00,,FEW021,0.00,0.00,VWS V14.01,2013-12-20 05:11:00,
2013-12-20 00:16:00,70.3,64.6,30.16,East,90,1.0,1.0,82,0.00,,FEW021,0.00,0.00,VWS V14.01,2013-12-20 05:16:00,
2013-12-20 00:21:00,70.3,64.6,30.16,ESE,119,0.0,2.0,82,0.00,,FEW021,0.00,0.00,VWS V14.01,2013-12-20 05:21:00,
2013-12-20 00:26:00,70.5,64.8,30.16,East,85,0.0,2.0,82,0.00,,FEW021,0.00,0.00,VWS V14.01,2013-12-20 05:26:00,
2013-12-20 00:31:00,70.5,64.8,30.16,ENE,73,0.0,2.0,82,0.00,,FEW021,0.00,0.00,VWS V14.01,2013-12-20 05:31:00,
2013-12-20 00:36:00,70.6,64.5,30.16,ENE,73,0.0,2.0,81,0.00,,FEW021,0.00,0.00,VWS V14.01,2013-12-20 05:36:00,
2013-12-20 00:41:00,70.6,64.5,30.16,ENE,70,0.0,2.0,81,0.00,,FEW021,0.00,0.00,VWS V14.01,2013-12-20 05:41:00,
2013-12-20 00:46:00,70.7,64.6,30.16,ENE,67,0.0,2.0,81,0.00,,FEW021,0.00,0.00,VWS V14.01,2013-12-20 05:46:00,
2013-12-20 00:47:00,70.7,64.6,30.16,ENE,69,1.0,2.0,81,0.00,,FEW021,0.00,0.00,VWS V14.01,2013-12-20 05:47:00,
2013-12-20 00:52:00,70.8,64.3,30.16,ENE,69,1.0,2.0,80,0.00,,FEW021,0.00,0.00,VWS V14.01,2013-12-20 05:52:00,
2013-12-20 00:57:00,70.8,64.3,30.16,ENE,69,0.0,2.0,80,0.00,,FEW021,0.00,0.00,VWS V14.01,2013-12-20 05:57:00,
2013-12-20 01:02:00,70.8,64.3,30.16,ENE,69,1.0,2.0,80,0.00,,FEW021,0.00,0.00,VWS V14.01,2013-12-20 06:02:00,
2013-12-20 01:07:00,70.7,64.6,30.15,ENE,63,0.0,2.0,81,0.00,,FEW021,0.00,0.00,VWS V14.01,2013-12-20 06:07:00,
2013-12-20 01:12:00,70.6,64.5,30.15,NE,48,0.0,3.0,81,0.00,,FEW021,0.00,0.00,VWS V14.01,2013-12-20 06:12:00,
2013-12-20 01:17:00,70.7,64.6,30.15,NE,48,1.0,2.0,81,0.00,,FEW021,0.00,0.00,VWS V14.01,2013-12-20 06:17:00,
2013-12-20 01:22:00,70.6,64.5,30.15,NE,48,1.0,2.0,81,0.00,,FEW021,0.00,0.00,VWS V14.01,2013-12-20 06:22:00,
2013-12-20 01:27:00,70.3,64.2,30.15,NE,48,0.0,1.0,81,0.00,,FEW021,0.00,0.00,VWS V14.01,2013-12-20 06:27:00,
2013-12-20 01:32:00,69.9,64.5,30.15,NE,48,0.0,2.0,83,0.00,,FEW021,0.00,0.00,VWS V14.01,2013-12-20 06:32:00,
2013-12-20 01:37:00,69.7,64.3,30.15,NE,48,0.0,2.0,83,0.00,,FEW021,0.00,0.00,VWS V14.01,2013-12-20 06:37:00,
2013-12-20 01:42:00,69.5,64.5,30.15,NE,48,0.0,1.0,84,0.00,,FEW021,0.00,0.00,VWS V14.01,2013-12-20 06:42:00,
2013-12-20 01:47:00,69.6,64.6,30.15,NE,48,1.0,1.0,84,0.00,,FEW021,0.00,0.00,VWS V14.01,2013-12-20 06:47:00,
2013-12-20 01:52:00,69.7,65.0,30.15,East,84,0.0,2.0,85,0.00,,FEW021,0.00,0.00,VWS V14.01,2013-12-20 06:52:00,
2013-12-20 01:57:00,70.0,65.3,30.15,ESE,119,1.0,3.0,85,0.00,,FEW021,0.00,0.00,VWS V14.01,2013-12-20 06:57:00,
2013-12-20 02:02:00,70.4,65.3,30.15,NE,49,1.0,3.0,84,0.00,,FEW021,0.00,0.00,VWS V14.01,2013-12-20 07:02:00,
2013-12-20 02:07:00,70.7,65.6,30.15,NE,49,1.0,3.0,84,0.00,,FEW021,0.00,0.00,VWS V14.01,2013-12-20 07:07:00,
2013-12-20 02:12:00,71.0,65.6,30.14,ENE,67,1.0,4.0,83,0.00,,FEW021,0.00,0.00,VWS V14.01,2013-12-20 07:12:00,
2013-12-20 02:17:00,71.2,65.4,30.14,NE,42,1.0,3.0,82,0.00,,FEW021,0.00,0.00,VWS V14.01,2013-12-20 07:17:00,
2013-12-20 02:22:00,71.4,65.6,30.14,NE,46,1.0,3.0,82,0.00,,FEW021,0.00,0.00,VWS V14.01,2013-12-20 07:22:00,
2013-12-20 02:27:00,71.6,65.8,30.14,ESE,120,2.0,3.0,82,0.00,,FEW021,0.00,0.00,VWS V14.01,2013-12-20 07:27:00,
2013-12-20 02:32:00,71.7,65.6,30.14,East,91,2.0,3.0,81,0.00,,FEW021,0.00,0.00,VWS V14.01,2013-12-20 07:32:00,
2013-12-20 02:37:00,71.8,65.7,30.14,NE,53,1.0,3.0,81,0.00,,FEW021,0.00,0.00,VWS V14.01,2013-12-20 07:37:00,
2013-12-20 02:42:00,71.8,65.7,30.14,ENE,65,1.0,3.0,81,0.00,,FEW021,0.00,0.00,VWS V14.01,2013-12-20 07:42:00,
2013-12-20 02:47:00,71.8,65.7,30.14,East,85,1.0,4.0,81,0.00,,FEW021,0.00,0.00,VWS V14.01,2013-12-20 07:47:00,
2013-12-20 02:52:00,71.7,65.6,30.14,NE,42,1.0,4.0,81,0.00,,FEW021,0.00,0.00,VWS V14.01,2013-12-20 07:52:00,
2013-12-20 02:57:00,71.7,65.6,30.14,ENE,65,2.0,5.0,81,0.00,,FEW021,0.00,0.00,VWS V14.01,2013-12-20 07:57:00,
2013-12-20 03:02:00,71.8,65.7,30.14,ENE,71,1.0,5.0,81,0.00,,FEW021,0.00,0.00,VWS V14.01,2013-12-20 08:02:00,
2013-12-20 03:07:00,71.9,65.8,30.14,NE,46,1.0,4.0,81,0.00,,FEW021,0.00,0.00,VWS V14.01,2013-12-20 08:07:00,
2013-12-20 03:12:00,72.0,65.9,30.14,ENE,70,1.0,5.0,81,0.00,,FEW021,0.00,0.00,VWS V14.01,2013-12-20 08:12:00,
2013-12-20 03:17:00,72.1,65.9,30.14,NE,42,1.0,3.0,81,0.00,,FEW021,0.00,0.00,VWS V14.01,2013-12-20 08:17:00,
2013-12-20 03:22:00,72.2,66.1,30.14,NE,43,2.0,2.0,81,0.00,,FEW021,0.00,0.00,VWS V14.01,2013-12-20 08:22:00,
2013-12-20 03:27:00,72.5,66.3,30.13,NE,40,0.0,4.0,81,0.00,,FEW021,0.00,0.00,VWS V14.01,2013-12-20 08:27:00,
2013-12-20 03:32:00,72.8,66.6,30.13,NE,44,2.0,5.0,81,0.00,,FEW021,0.00,0.00,VWS V14.01,2013-12-20 08:32:00,
2013-12-20 03:37:00,73.0,66.5,30.13,ESE,117,2.0,5.0,80,0.00,,FEW021,0.00,0.00,VWS V14.01,2013-12-20 08:37:00,
2013-12-20 03:42:00,73.3,66.4,30.13,NE,53,4.0,7.0,79,0.00,,FEW021,0.00,0.00,VWS V14.01,2013-12-20 08:42:00,
2013-12-20 03:47:00,73.5,66.2,30.13,SE,132,2.0,7.0,78,0.00,,FEW021,0.00,0.00,VWS V14.01,2013-12-20 08:47:00,
2013-12-20 03:52:00,73.7,66.4,30.13,ESE,120,2.0,8.0,78,0.00,,FEW021,0.00,0.00,VWS V14.01,2013-12-20 08:52:00,
2013-12-20 03:57:00,73.7,66.4,30.13,ESE,110,2.0,4.0,78,0.00,,FEW021,0.00,0.00,VWS V14.01,2013-12-20 08:57:00,
2013-12-20 04:02:00,73.7,66.4,30.13,ESE,115,3.0,10.0,78,0.00,,FEW021,0.00,0.00,VWS V14.01,2013-12-20 09:02:00,
2013-12-20 04:07:00,73.8,66.2,30.13,ENE,57,2.0,7.0,77,0.00,,FEW021,0.00,0.00,VWS V14.01,2013-12-20 09:07:00,
2013-12-20 04:12:00,73.8,66.2,30.13,NE,51,3.0,4.0,77,0.00,,FEW021,0.00,0.00,VWS V14.01,2013-12-20 09:12:00,
2013-12-20 04:17:00,73.8,65.8,30.13,East,93,2.0,7.0,76,0.00,,FEW021,0.00,0.00,VWS V14.01,2013-12-20 09:17:00,
2013-12-20 04:22:00,73.8,65.4,30.13,SE,134,4.0,8.0,75,0.00,,FEW021,0.00,0.00,VWS V14.01,2013-12-20 09:22:00,
2013-12-20 04:27:00,73.9,65.5,30.13,NE,47,1.0,7.0,75,0.00,,FEW021,0.00,0.00,VWS V14.01,2013-12-20 09:27:00,
2013-12-20 04:32:00,73.9,65.9,30.13,NE,44,3.0,3.0,76,0.00,,FEW021,0.00,0.00,VWS V14.01,2013-12-20 09:32:00,
2013-12-20 04:37:00,74.0,66.3,30.13,East,89,3.0,10.0,77,0.00,,FEW021,0.00,0.00,VWS V14.01,2013-12-20 09:37:00,
2013-12-20 04:42:00,74.0,66.3,30.13,ENE,68,3.0,6.0,77,0.00,,FEW021,0.00,0.00,VWS V14.01,2013-12-20 09:42:00,
2013-12-20 04:47:00,74.1,66.8,30.13,NE,44,2.0,8.0,78,0.00,,FEW021,0.00,0.00,VWS V14.01,2013-12-20 09:47:00,
2013-12-20 04:52:00,74.2,66.9,30.13,ENE,67,3.0,9.0,78,0.00,,FEW021,0.00,0.00,VWS V14.01,2013-12-20 09:52:00,
2013-12-20 04:57:00,74.2,66.9,30.13,SE,140,1.0,5.0,78,0.00,,FEW021,0.00,0.00,VWS V14.01,2013-12-20 09:57:00,
2013-12-20 05:01:00,74.2,66.9,30.14,ESE,120,2.0,4.0,78,0.00,,FEW021,0.00,0.00,VWS V14.01,2013-12-20 10:01:00,
2013-12-20 05:06:00,74.2,66.9,30.14,ENE,63,1.0,6.0,78,0.00,,FEW021,0.00,0.00,VWS V14.01,2013-12-20 10:06:00,
2013-12-20 05:11:00,74.1,66.8,30.14,East,96,1.0,3.0,78,0.00,,FEW021,0.00,0.00,VWS V14.01,2013-12-20 10:11:00,
2013-12-20 05:16:00,74.0,67.1,30.14,ENE,71,2.0,5.0,79,0.00,,FEW021,0.00,0.00,VWS V14.01,2013-12-20 10:16:00,
2013-12-20 05:21:00,73.9,67.0,30.14,NE,46,2.0,8.0,79,0.00,,FEW021,0.00,0.00,VWS V14.01,2013-12-20 10:21:00,
2013-12-20 05:26:00,73.8,66.9,30.14,ENE,66,2.0,5.0,79,0.00,,FEW021,0.00,0.00,VWS V14.01,2013-12-20 10:26:00,
2013-12-20 05:31:00,73.8,66.9,30.14,East,96,1.0,5.0,79,0.00,,FEW021,0.00,0.00,VWS V14.01,2013-12-20 10:31:00,
2013-12-20 05:36:00,73.9,67.0,30.14,East,88,1.0,5.0,79,0.00,,FEW021,0.00,0.00,VWS V14.01,2013-12-20 10:36:00,
2013-12-20 05:41:00,74.0,66.7,30.15,ENE,71,2.0,5.0,78,0.00,,FEW021,0.00,0.00,VWS V14.01,2013-12-20 10:41:00,
2013-12-20 05:46:00,74.0,66.7,30.15,SSE,155,4.0,4.0,78,0.00,,FEW021,0.00,0.00,VWS V14.01,2013-12-20 10:46:00,
2013-12-20 05:51:00,74.1,66.8,30.15,NE,46,1.0,6.0,78,0.00,,FEW021,0.00,0.00,VWS V14.01,2013-12-20 10:51:00,
2013-12-20 05:56:00,74.1,66.8,30.15,SE,130,1.0,4.0,78,0.00,,FEW021,0.00,0.00,VWS V14.01,2013-12-20 10:56:00,
2013-12-20 06:01:00,74.2,66.9,30.15,NE,45,2.0,3.0,78,0.00,,FEW021,0.00,0.00,VWS V14.01,2013-12-20 11:01:00,
2013-12-20 06:06:00,74.2,66.9,30.15,East,84,2.0,5.0,78,0.00,,FEW021,0.00,0.00,VWS V14.01,2013-12-20 11:06:00,
2013-12-20 06:11:00,74.3,67.0,30.15,ESE,110,2.0,5.0,78,0.00,,FEW021,0.00,0.00,VWS V14.01,2013-12-20 11:11:00,
2013-12-20 06:16:00,74.4,67.1,30.15,ENE,69,2.0,5.0,78,0.00,,FEW021,0.00,0.00,VWS V14.01,2013-12-20 11:16:00,
2013-12-20 06:21:00,74.4,67.1,30.15,SE,132,2.0,8.0,78,0.00,,FEW021,0.00,0.00,VWS V14.01,2013-12-20 11:21:00,
2013-12-20 06:26:00,74.5,67.2,30.15,ENE,71,2.0,6.0,78,0.00,,FEW021,0.00,0.00,VWS V14.01,2013-12-20 11:26:00,
2013-12-20 06:31:00,74.6,67.3,30.16,ENE,70,1.0,7.0,78,0.00,,FEW021,0.00,0.00,VWS V14.01,2013-12-20 11:31:00,
2013-12-20 06:36:00,74.6,67.3,30.16,NE,49,0.0,7.0,78,0.00,,FEW021,0.00,0.00,VWS V14.01,2013-12-20 11:36:00,
2013-12-20 06:41:00,74.7,67.4,30.16,ESE,120,3.0,5.0,78,0.00,,FEW021,0.00,0.00,VWS V14.01,2013-12-20 11:41:00,
2013-12-20 06:46:00,74.7,67.4,30.16,ESE,116,2.0,5.0,78,0.00,,FEW021,0.00,0.00,VWS V14.01,2013-12-20 11:46:00,
2013-12-20 06:51:00,74.7,67.4,30.16,ENE,69,2.0,7.0,78,0.00,,FEW021,0.00,0.00,VWS V14.01,2013-12-20 11:51:00,
2013-12-20 06:56:00,74.7,67.4,30.16,ENE,73,3.0,6.0,78,0.00,,FEW021,0.00,0.00,VWS V14.01,2013-12-20 11:56:00,
2013-12-20 07:01:00,74.7,67.4,30.16,ENE,70,4.0,6.0,78,0.00,,FEW021,0.00,0.00,VWS V14.01,2013-12-20 12:01:00,
2013-12-20 07:06:00,74.7,67.4,30.16,NE,38,2.0,9.0,78,0.00,,FEW021,0.00,0.00,VWS V14.01,2013-12-20 12:06:00,
2013-12-20 07:11:00,74.8,67.5,30.16,ESE,108,2.0,7.0,78,0.00,,FEW021,0.00,5.00,VWS V14.01,2013-12-20 12:11:00,
2013-12-20 07:16:00,74.8,67.5,30.17,ENE,74,2.0,5.0,78,0.00,,FEW021,0.00,5.00,VWS V14.01,2013-12-20 12:16:00,
2013-12-20 07:21:00,74.8,67.5,30.17,SE,140,4.0,7.0,78,0.00,,FEW021,0.00,12.00,VWS V14.01,2013-12-20 12:21:00,
2013-12-20 07:26:00,74.9,67.6,30.17,SSE,168,1.0,7.0,78,0.00,,FEW021,0.00,25.00,VWS V14.01,2013-12-20 12:26:00,
2013-12-20 07:31:00,74.9,67.6,30.16,East,92,3.0,7.0,78,0.00,,FEW021,0.00,23.00,VWS V14.01,2013-12-20 12:31:00,
2013-12-20 07:36:00,75.0,67.7,30.17,ESE,115,1.0,12.0,78,0.00,,FEW021,0.00,16.00,VWS V14.01,2013-12-20 12:36:00,
2013-12-20 07:41:00,75.1,67.8,30.17,ENE,64,2.0,6.0,78,0.00,,FEW021,0.00,16.00,VWS V14.01,2013-12-20 12:41:00,
2013-12-20 07:46:00,75.1,67.8,30.17,ENE,65,1.0,5.0,78,0.00,,FEW021,0.00,14.00,VWS V14.01,2013-12-20 12:46:00,
2013-12-20 07:51:00,75.1,67.8,30.17,ENE,68,4.0,10.0,78,0.00,,FEW021,0.00,63.00,VWS V14.01,2013-12-20 12:51:00,
2013-12-20 07:56:00,75.4,68.1,30.17,East,84,5.0,10.0,78,0.00,,FEW021,0.00,107.00,VWS V14.01,2013-12-20 12:56:00,
2013-12-20 08:01:00,75.8,68.5,30.17,SE,132,1.0,8.0,78,0.00,,FEW021,0.00,56.00,VWS V14.01,2013-12-20 13:01:00,
2013-12-20 08:06:00,75.8,68.1,30.17,SE,136,4.0,12.0,77,0.00,,FEW021,0.00,69.00,VWS V14.01,2013-12-20 13:06:00,
2013-12-20 08:11:00,75.8,68.1,30.17,NE,45,3.0,11.0,77,0.00,,FEW021,0.00,53.00,VWS V14.01,2013-12-20 13:11:00,
2013-12-20 08:16:00,75.8,68.5,30.17,SE,129,4.0,11.0,78,0.00,,FEW021,0.00,69.00,VWS V14.01,2013-12-20 13:16:00,
2013-12-20 08:21:00,75.9,68.6,30.17,SE,133,5.0,7.0,78,0.00,,FEW021,0.00,113.00,VWS V14.01,2013-12-20 13:21:00,
2013-12-20 08:26:00,76.0,68.3,30.17,NE,44,4.0,8.0,77,0.00,,FEW021,0.00,84.00,VWS V14.01,2013-12-20 13:26:00,
2013-12-20 08:31:00,76.0,67.9,30.17,ESE,117,7.0,10.0,76,0.00,,FEW021,0.00,120.00,VWS V14.01,2013-12-20 13:31:00,
2013-12-20 08:36:00,76.2,68.5,30.17,NE,34,2.0,7.0,77,0.00,,FEW021,0.00,128.00,VWS V14.01,2013-12-20 13:36:00,
2013-12-20 08:41:00,76.4,68.7,30.17,SE,132,5.0,8.0,77,0.00,,FEW021,0.00,105.00,VWS V14.01,2013-12-20 13:41:00,
2013-12-20 08:46:00,76.5,68.8,30.17,East,92,10.0,10.0,77,0.00,,FEW021,0.00,125.00,VWS V14.01,2013-12-20 13:46:00,
2013-12-20 08:51:00,76.5,68.8,30.17,East,85,2.0,9.0,77,0.00,,FEW021,0.00,135.00,VWS V14.01,2013-12-20 13:51:00,
2013-12-20 08:56:00,76.7,68.6,30.17,NE,42,3.0,7.0,76,0.00,,FEW021,0.00,169.00,VWS V14.01,2013-12-20 13:56:00,
2013-12-20 09:01:00,76.7,68.6,30.17,NE,42,2.0,9.0,76,0.00,,FEW021,0.00,104.00,VWS V14.01,2013-12-20 14:01:00,
2013-12-20 09:06:00,76.9,68.8,30.17,SSW,197,4.0,10.0,76,0.00,,FEW021,0.00,269.00,VWS V14.01,2013-12-20 14:06:00,
2013-12-20 09:11:00,77.5,69.3,30.18,NE,40,4.0,9.0,76,0.00,,FEW021,0.00,397.00,VWS V14.01,2013-12-20 14:11:00,
2013-12-20 09:16:00,78.1,69.5,30.18,ESE,117,5.0,12.0,75,0.00,,FEW021,0.00,455.00,VWS V14.01,2013-12-20 14:16:00,
2013-12-20 09:21:00,78.4,69.4,30.18,ENE,68,2.0,11.0,74,0.00,,FEW021,0.00,162.00,VWS V14.01,2013-12-20 14:21:00,
2013-12-20 09:26:00,78.1,69.1,30.18,East,90,3.0,11.0,74,0.00,,FEW021,0.00,153.00,VWS V14.01,2013-12-20 14:26:00,
2013-12-20 09:31:00,78.2,69.2,30.18,East,92,3.0,10.0,74,0.00,,FEW021,0.00,473.00,VWS V14.01,2013-12-20 14:31:00,
2013-12-20 09:36:00,78.7,69.3,30.18,SSE,164,5.0,12.0,73,0.00,,FEW021,0.00,185.00,VWS V14.01,2013-12-20 14:36:00,
2013-12-20 09:41:00,78.5,69.1,30.18,SE,132,3.0,8.0,73,0.00,,FEW021,0.00,195.00,VWS V14.01,2013-12-20 14:41:00,
2013-12-20 09:46:00,78.4,69.4,30.19,SSE,161,5.0,10.0,74,0.00,,FEW021,0.00,186.00,VWS V14.01,2013-12-20 14:46:00,
2013-12-20 09:51:00,78.4,69.4,30.19,SE,132,8.0,11.0,74,0.00,,FEW021,0.00,522.00,VWS V14.01,2013-12-20 14:51:00,
2013-12-20 09:56:00,78.6,69.2,30.19,South,175,4.0,9.0,73,0.00,,FEW021,0.00,522.00,VWS V14.01,2013-12-20 14:56:00,
2013-12-20 10:01:00,78.8,69.4,30.19,NE,46,8.0,13.0,73,0.00,,FEW021,0.00,475.00,VWS V14.01,2013-12-20 15:01:00,
2013-12-20 10:06:00,79.1,69.3,30.19,East,87,3.0,13.0,72,0.00,,FEW021,0.00,512.00,VWS V14.01,2013-12-20 15:06:00,
2013-12-20 10:11:00,78.9,69.1,30.19,East,90,5.0,11.0,72,0.00,,FEW021,0.00,545.00,VWS V14.01,2013-12-20 15:11:00,
2013-12-20 10:16:00,79.2,69.0,30.19,ESE,116,9.0,15.0,71,0.00,,FEW021,0.00,160.00,VWS V14.01,2013-12-20 15:16:00,
2013-12-20 10:21:00,79.1,68.5,30.19,ESE,108,5.0,11.0,70,0.00,,FEW021,0.00,132.00,VWS V14.01,2013-12-20 15:21:00,
2013-12-20 10:26:00,78.9,68.3,30.19,SE,130,3.0,11.0,70,0.00,,FEW021,0.00,550.00,VWS V14.01,2013-12-20 15:26:00,
2013-12-20 10:31:00,79.1,68.9,30.18,East,85,6.0,10.0,71,0.00,,FEW021,0.00,204.00,VWS V14.01,2013-12-20 15:31:00,
2013-12-20 10:36:00,79.6,69.0,30.18,SE,133,6.0,10.0,70,0.00,,FEW021,0.00,610.00,VWS V14.01,2013-12-20 15:36:00,
2013-12-20 10:41:00,80.0,68.9,30.19,East,88,10.0,11.0,69,0.00,,FEW021,0.00,592.00,VWS V14.01,2013-12-20 15:41:00,
2013-12-20 10:46:00,80.1,68.6,30.18,ESE,116,5.0,14.0,68,0.00,,FEW021,0.00,193.00,VWS V14.01,2013-12-20 15:46:00,
2013-12-20 10:51:00,79.7,68.6,30.19,East,88,5.0,14.0,69,0.00,,FEW021,0.00,686.00,VWS V14.01,2013-12-20 15:51:00,
2013-12-20 10:56:00,79.7,68.6,30.19,East,96,2.0,10.0,69,0.00,,FEW021,0.00,244.00,VWS V14.01,2013-12-20 15:56:00,
2013-12-20 11:01:00,80.1,69.0,30.19,ESE,111,4.0,13.0,69,0.00,,FEW021,0.00,684.00,VWS V14.01,2013-12-20 16:01:00,
2013-12-20 11:06:00,79.7,68.6,30.19,ESE,116,2.0,11.0,69,0.00,,FEW021,0.00,728.00,VWS V14.01,2013-12-20 16:06:00,
2013-12-20 11:11:00,80.4,69.3,30.19,ENE,72,2.0,12.0,69,0.00,,FEW021,0.00,712.00,VWS V14.01,2013-12-20 16:11:00,
2013-12-20 11:16:00,81.1,69.1,30.19,ENE,71,8.0,12.0,67,0.00,,FEW021,0.00,735.00,VWS V14.01,2013-12-20 16:16:00,
2013-12-20 11:21:00,80.5,68.1,30.19,ENE,69,5.0,10.0,66,0.00,,FEW021,0.00,649.00,VWS V14.01,2013-12-20 16:21:00,
2013-12-20 11:26:00,80.6,68.6,30.18,SE,143,9.0,12.0,67,0.00,,FEW021,0.00,686.00,VWS V14.01,2013-12-20 16:26:00,
2013-12-20 11:31:00,80.5,68.1,30.18,ESE,111,5.0,12.0,66,0.00,,FEW021,0.00,700.00,VWS V14.01,2013-12-20 16:31:00,
2013-12-20 11:36:00,80.8,68.8,30.18,SSE,151,4.0,9.0,67,0.00,,FEW021,0.00,747.00,VWS V14.01,2013-12-20 16:36:00,
2013-12-20 11:41:00,81.4,68.1,30.18,NE,53,5.0,10.0,64,0.00,,FEW021,0.00,728.00,VWS V14.01,2013-12-20 16:41:00,
2013-12-20 11:46:00,81.4,68.5,30.18,NE,48,7.0,10.0,65,0.00,,FEW021,0.00,737.00,VWS V14.01,2013-12-20 16:46:00,
2013-12-20 11:51:00,81.3,67.5,30.18,East,84,8.0,13.0,63,0.00,,FEW021,0.00,712.00,VWS V14.01,2013-12-20 16:51:00,
2013-12-20 11:56:00,80.8,67.9,30.17,SE,128,6.0,10.0,65,0.00,,FEW021,0.00,691.00,VWS V14.01,2013-12-20 16:56:00,
2013-12-20 12:01:00,81.0,67.7,30.17,ENE,67,4.0,11.0,64,0.00,,FEW021,0.00,675.00,VWS V14.01,2013-12-20 17:01:00,
2013-12-20 12:06:00,81.0,68.1,30.17,ENE,64,3.0,9.0,65,0.00,,FEW021,0.00,661.00,VWS V14.01,2013-12-20 17:06:00,
2013-12-20 12:11:00,81.3,68.4,30.17,SE,128,3.0,11.0,65,0.00,,FEW021,0.00,661.00,VWS V14.01,2013-12-20 17:11:00,
2013-12-20 12:16:00,81.3,68.0,30.16,SSE,165,6.0,14.0,64,0.00,,FEW021,0.00,664.00,VWS V14.01,2013-12-20 17:16:00,
2013-12-20 12:21:00,81.5,68.2,30.16,SE,130,8.0,10.0,64,0.00,,FEW021,0.00,680.00,VWS V14.01,2013-12-20 17:21:00,
2013-12-20 12:26:00,81.4,68.5,30.16,NE,47,5.0,15.0,65,0.00,,FEW021,0.00,694.00,VWS V14.01,2013-12-20 17:26:00,
2013-12-20 12:31:00,81.5,68.2,30.16,SE,134,3.0,12.0,64,0.00,,FEW021,0.00,717.00,VWS V14.01,2013-12-20 17:31:00,
2013-12-20 12:36:00,81.3,67.5,30.16,SE,132,5.0,13.0,63,0.00,,FEW021,0.00,698.00,VWS V14.01,2013-12-20 17:36:00,
2013-12-20 12:41:00,81.4,68.5,30.16,ESE,110,8.0,13.0,65,0.00,,FEW021,0.00,721.00,VWS V14.01,2013-12-20 17:41:00,
2013-12-20 12:46:00,81.6,68.7,30.15,East,84,7.0,12.0,65,0.00,,FEW021,0.00,733.00,VWS V14.01,2013-12-20 17:46:00,
2013-12-20 12:51:00,81.6,68.2,30.15,SE,141,5.0,9.0,64,0.00,,FEW021,0.00,677.00,VWS V14.01,2013-12-20 17:51:00,
2013-12-20 12:56:00,81.5,67.7,30.15,East,86,6.0,16.0,63,0.00,,FEW021,0.00,687.00,VWS V14.01,2013-12-20 17:56:00,
2013-12-20 13:01:00,81.4,67.6,30.14,NE,52,4.0,10.0,63,0.00,,FEW021,0.00,680.00,VWS V14.01,2013-12-20 18:01:00,
2013-12-20 13:06:00,81.6,68.2,30.14,SE,131,4.0,8.0,64,0.00,,FEW021,0.00,619.00,VWS V14.01,2013-12-20 18:06:00,
2013-12-20 13:11:00,81.8,68.4,30.14,SE,131,2.0,10.0,64,0.00,,FEW021,0.00,687.00,VWS V14.01,2013-12-20 18:11:00,
2013-12-20 13:16:00,81.8,68.0,30.14,SSE,152,7.0,12.0,63,0.00,,FEW021,0.00,700.00,VWS V14.01,2013-12-20 18:16:00,
2013-12-20 13:21:00,81.5,68.2,30.14,ENE,65,3.0,11.0,64,0.00,,FEW021,0.00,652.00,VWS V14.01,2013-12-20 18:21:00,
2013-12-20 13:26:00,81.3,68.0,30.14,ENE,69,8.0,11.0,64,0.00,,FEW021,0.00,642.00,VWS V14.01,2013-12-20 18:26:00,
2013-12-20 13:31:00,81.1,66.9,30.14,SE,140,4.0,9.0,62,0.00,,FEW021,0.00,642.00,VWS V14.01,2013-12-20 18:31:00,
2013-12-20 13:36:00,80.9,68.0,30.13,SSE,156,5.0,8.0,65,0.00,,FEW021,0.00,279.00,VWS V14.01,2013-12-20 18:36:00,
2013-12-20 13:41:00,81.0,68.6,30.13,NE,47,3.0,12.0,66,0.00,,FEW021,0.00,724.00,VWS V14.01,2013-12-20 18:41:00,
2013-12-20 13:46:00,81.2,68.3,30.13,East,97,13.0,13.0,65,0.00,,FEW021,0.00,694.00,VWS V14.01,2013-12-20 18:46:00,
2013-12-20 13:51:00,81.4,68.5,30.12,NNE,25,4.0,9.0,65,0.00,,FEW021,0.00,622.00,VWS V14.01,2013-12-20 18:51:00,
2013-12-20 13:56:00,81.3,68.9,30.12,SSE,155,9.0,12.0,66,0.00,,FEW021,0.00,329.00,VWS V14.01,2013-12-20 18:56:00,
2013-12-20 14:01:00,81.2,68.8,30.12,East,85,6.0,10.0,66,0.00,,FEW021,0.00,503.00,VWS V14.01,2013-12-20 19:01:00,
2013-12-20 14:06:00,81.1,68.7,30.12,ENE,64,1.0,13.0,66,0.00,,FEW021,0.00,503.00,VWS V14.01,2013-12-20 19:06:00,
2013-12-20 14:11:00,81.1,68.7,30.12,SSE,152,5.0,9.0,66,0.00,,FEW021,0.00,626.00,VWS V14.01,2013-12-20 19:11:00,
2013-12-20 14:16:00,81.2,69.6,30.12,ENE,72,2.0,10.0,68,0.00,,FEW021,0.00,578.00,VWS V14.01,2013-12-20 19:16:00,
2013-12-20 14:21:00,81.4,68.5,30.11,NNE,30,4.0,11.0,65,0.00,,FEW021,0.00,559.00,VWS V14.01,2013-12-20 19:21:00,
2013-12-20 14:26:00,81.3,68.0,30.11,NE,50,3.0,9.0,64,0.00,,FEW021,0.00,545.00,VWS V14.01,2013-12-20 19:26:00,
2013-12-20 14:31:00,81.2,68.3,30.11,ENE,66,2.0,8.0,65,0.00,,FEW021,0.00,536.00,VWS V14.01,2013-12-20 19:31:00,
2013-12-20 14:33:00,81.2,68.3,30.11,SE,133,3.0,9.0,65,0.00,,FEW021,0.00,526.00,VWS V14.01,2013-12-20 19:33:00,
2013-12-20 14:38:00,81.2,68.3,30.11,NE,52,3.0,14.0,65,0.00,,FEW021,0.00,522.00,VWS V14.01,2013-12-20 19:38:00,
2013-12-20 14:43:00,81.3,68.9,30.11,NE,53,4.0,8.0,66,0.00,,FEW021,0.00,522.00,VWS V14.01,2013-12-20 19:43:00,
2013-12-20 14:48:00,81.3,68.9,30.12,ENE,66,2.0,11.0,66,0.00,,FEW021,0.00,520.00,VWS V14.01,2013-12-20 19:48:00,
2013-12-20 14:53:00,81.3,69.7,30.11,East,97,10.0,10.0,68,0.00,,FEW021,0.00,533.00,VWS V14.01,2013-12-20 19:53:00,
2013-12-20 14:58:00,81.2,69.2,30.11,East,97,3.0,10.0,67,0.00,,FEW021,0.00,483.00,VWS V14.01,2013-12-20 19:58:00,
2013-12-20 15:03:00,80.9,69.4,30.12,NE,46,5.0,7.0,68,0.00,,FEW021,0.00,504.00,VWS V14.01,2013-12-20 20:03:00,
2013-12-20 15:08:00,81.0,69.9,30.12,ESE,119,3.0,10.0,69,0.00,,FEW021,0.00,512.00,VWS V14.01,2013-12-20 20:08:00,
2013-12-20 15:13:00,81.1,69.6,30.12,SE,128,4.0,7.0,68,0.00,,FEW021,0.00,471.00,VWS V14.01,2013-12-20 20:13:00,
2013-12-20 15:18:00,80.8,69.7,30.11,East,90,3.0,10.0,69,0.00,,FEW021,0.00,411.00,VWS V14.01,2013-12-20 20:18:00,
2013-12-20 15:23:00,80.9,69.8,30.11,SE,134,1.0,7.0,69,0.00,,FEW021,0.00,464.00,VWS V14.01,2013-12-20 20:23:00,
2013-12-20 15:28:00,80.7,70.0,30.11,SE,146,5.0,8.0,70,0.00,,FEW021,0.00,352.00,VWS V14.01,2013-12-20 20:28:00,
2013-12-20 15:33:00,80.2,69.5,30.11,ENE,74,2.0,11.0,70,0.00,,FEW021,0.00,125.00,VWS V14.01,2013-12-20 20:33:00,
2013-12-20 15:38:00,79.9,69.7,30.11,East,90,5.0,10.0,71,0.00,,FEW021,0.00,401.00,VWS V14.01,2013-12-20 20:38:00,
2013-12-20 15:43:00,79.7,69.5,30.11,ENE,67,3.0,9.0,71,0.00,,FEW021,0.00,392.00,VWS V14.01,2013-12-20 20:43:00,
2013-12-20 15:48:00,79.6,69.8,30.11,ENE,69,8.0,10.0,72,0.00,,FEW021,0.00,381.00,VWS V14.01,2013-12-20 20:48:00,
2013-12-20 15:53:00,79.7,69.9,30.11,NE,49,6.0,10.0,72,0.00,,FEW021,0.00,350.00,VWS V14.01,2013-12-20 20:53:00,
2013-12-20 15:58:00,79.6,70.2,30.11,SE,140,4.0,8.0,73,0.00,,FEW021,0.00,352.00,VWS V14.01,2013-12-20 20:58:00,
2013-12-20 16:03:00,79.4,70.0,30.11,NNE,26,4.0,11.0,73,0.00,,FEW021,0.00,306.00,VWS V14.01,2013-12-20 21:03:00,
2013-12-20 16:08:00,79.1,69.7,30.11,NE,53,3.0,9.0,73,0.00,,FEW021,0.00,285.00,VWS V14.01,2013-12-20 21:08:00,
2013-12-20 16:13:00,79.1,70.1,30.11,East,87,1.0,7.0,74,0.00,,FEW021,0.00,107.00,VWS V14.01,2013-12-20 21:13:00,
2013-12-20 16:18:00,78.8,69.8,30.11,SE,130,5.0,7.0,74,0.00,,FEW021,0.00,102.00,VWS V14.01,2013-12-20 21:18:00,
2013-12-20 16:23:00,78.7,70.1,30.11,ESE,123,2.0,5.0,75,0.00,,FEW021,0.00,113.00,VWS V14.01,2013-12-20 21:23:00,
2013-12-20 16:28:00,78.6,70.0,30.11,NNE,28,3.0,8.0,75,0.00,,FEW021,0.00,95.00,VWS V14.01,2013-12-20 21:28:00,
2013-12-20 16:33:00,78.4,69.8,30.11,East,89,1.0,7.0,75,0.00,,FEW021,0.00,98.00,VWS V14.01,2013-12-20 21:33:00,
2013-12-20 16:38:00,78.2,69.6,30.12,ENE,70,3.0,8.0,75,0.00,,FEW021,0.00,60.00,VWS V14.01,2013-12-20 21:38:00,
2013-12-20 16:43:00,78.1,69.9,30.12,SE,139,1.0,9.0,76,0.00,,FEW021,0.00,56.00,VWS V14.01,2013-12-20 21:43:00,
2013-12-20 16:48:00,77.9,69.7,30.12,ESE,117,3.0,6.0,76,0.00,,FEW021,0.00,39.00,VWS V14.01,2013-12-20 21:48:00,
2013-12-20 16:53:00,77.8,70.0,30.12,SE,131,4.0,6.0,77,0.00,,FEW021,0.00,51.00,VWS V14.01,2013-12-20 21:53:00,
2013-12-20 16:58:00,77.6,69.8,30.12,SE,130,3.0,6.0,77,0.00,,FEW021,0.00,37.00,VWS V14.01,2013-12-20 21:58:00,
2013-12-20 17:03:00,77.5,70.1,30.12,East,94,5.0,11.0,78,0.00,,FEW021,0.00,49.00,VWS V14.01,2013-12-20 22:03:00,
2013-12-20 17:08:00,77.4,70.0,30.12,North,360,5.0,6.0,78,0.00,,FEW021,0.00,32.00,VWS V14.01,2013-12-20 22:08:00,
2013-12-20 17:13:00,77.3,69.9,30.12,ESE,116,1.0,7.0,78,0.00,,FEW021,0.00,23.00,VWS V14.01,2013-12-20 22:13:00,
2013-12-20 17:18:00,77.2,69.8,30.12,East,95,7.0,7.0,78,0.00,,FEW021,0.00,21.00,VWS V14.01,2013-12-20 22:18:00,
2013-12-20 17:23:00,77.1,70.1,30.12,NE,45,3.0,7.0,79,0.00,,FEW021,0.00,14.00,VWS V14.01,2013-12-20 22:23:00,
2013-12-20 17:28:00,77.0,70.0,30.12,ENE,71,2.0,7.0,79,0.00,,FEW021,0.00,9.00,VWS V14.01,2013-12-20 22:28:00,
2013-12-20 17:33:00,76.9,69.9,30.12,ENE,67,2.0,7.0,79,0.00,,FEW021,0.00,5.00,VWS V14.01,2013-12-20 22:33:00,
2013-12-20 17:38:00,76.7,69.7,30.12,ENE,69,2.0,7.0,79,0.00,,FEW021,0.00,0.00,VWS V14.01,2013-12-20 22:38:00,
2013-12-20 17:43:00,76.6,69.6,30.12,East,96,3.0,6.0,79,0.00,,FEW021,0.00,0.00,VWS V14.01,2013-12-20 22:43:00,
2013-12-20 17:48:00,76.6,70.0,30.12,East,84,3.0,6.0,80,0.00,,FEW021,0.00,0.00,VWS V14.01,2013-12-20 22:48:00,
2013-12-20 17:53:00,76.5,69.9,30.12,East,85,6.0,7.0,80,0.00,,FEW021,0.00,0.00,VWS V14.01,2013-12-20 22:53:00,
2013-12-20 17:58:00,76.4,69.8,30.12,North,360,4.0,6.0,80,0.00,,FEW021,0.00,0.00,VWS V14.01,2013-12-20 22:58:00,
2013-12-20 18:03:00,76.3,69.7,30.13,ENE,71,2.0,6.0,80,0.00,,FEW021,0.00,0.00,VWS V14.01,2013-12-20 23:03:00,
2013-12-20 18:08:00,76.2,69.9,30.13,NE,42,3.0,3.0,81,0.00,,FEW021,0.00,0.00,VWS V14.01,2013-12-20 23:08:00,
2013-12-20 18:13:00,76.2,69.9,30.13,East,91,2.0,6.0,81,0.00,,FEW021,0.00,0.00,VWS V14.01,2013-12-20 23:13:00,
2013-12-20 18:18:00,76.1,69.8,30.13,NE,46,2.0,8.0,81,0.00,,FEW021,0.00,0.00,VWS V14.01,2013-12-20 23:18:00,
2013-12-20 18:23:00,76.1,69.8,30.13,ESE,119,1.0,5.0,81,0.00,,FEW021,0.00,0.00,VWS V14.01,2013-12-20 23:23:00,
2013-12-20 18:28:00,76.1,69.8,30.13,East,95,1.0,4.0,81,0.00,,FEW021,0.00,0.00,VWS V14.01,2013-12-20 23:28:00,
2013-12-20 18:33:00,76.0,69.8,30.13,NE,49,2.0,3.0,81,0.00,,FEW021,0.00,0.00,VWS V14.01,2013-12-20 23:33:00,
2013-12-20 18:38:00,75.9,69.7,30.13,NE,50,2.0,5.0,81,0.00,,FEW021,0.00,0.00,VWS V14.01,2013-12-20 23:38:00,
2013-12-20 18:43:00,75.9,69.7,30.13,East,93,2.0,5.0,81,0.00,,FEW021,0.00,0.00,VWS V14.01,2013-12-20 23:43:00,
2013-12-20 18:48:00,75.9,69.7,30.13,ENE,65,1.0,3.0,81,0.00,,FEW021,0.00,0.00,VWS V14.01,2013-12-20 23:48:00,
2013-12-20 18:53:00,75.9,69.7,30.13,NE,48,3.0,5.0,81,0.00,,FEW021,0.00,0.00,VWS V14.01,2013-12-20 23:53:00,
2013-12-20 18:58:00,75.9,69.7,30.13,ENE,74,0.0,7.0,81,0.00,,FEW021,0.00,0.00,VWS V14.01,2013-12-20 23:58:00,
2013-12-20 19:03:00,75.9,70.0,30.13,East,90,3.0,7.0,82,0.00,,FEW021,0.00,0.00,VWS V14.01,2013-12-21 00:03:00,
2013-12-20 19:08:00,76.0,70.1,30.13,SE,132,3.0,8.0,82,0.00,,FEW021,0.00,0.00,VWS V14.01,2013-12-21 00:08:00,
2013-12-20 19:13:00,76.0,70.1,30.13,East,90,3.0,7.0,82,0.00,,FEW021,0.00,0.00,VWS V14.01,2013-12-21 00:13:00,
2013-12-20 19:18:00,76.0,70.1,30.14,SE,133,2.0,7.0,82,0.00,,FEW021,0.00,0.00,VWS V14.01,2013-12-21 00:18:00,
2013-12-20 19:23:00,76.0,70.1,30.14,ESE,117,4.0,6.0,82,0.00,,FEW021,0.00,0.00,VWS V14.01,2013-12-21 00:23:00,
2013-12-20 19:28:00,76.0,70.1,30.14,SE,128,3.0,7.0,82,0.00,,FEW021,0.00,0.00,VWS V14.01,2013-12-21 00:28:00,
2013-12-20 19:33:00,76.0,70.1,30.14,ESE,111,4.0,7.0,82,0.00,,FEW021,0.00,0.00,VWS V14.01,2013-12-21 00:33:00,
2013-12-20 19:38:00,76.0,70.1,30.15,SE,132,1.0,7.0,82,0.00,,FEW021,0.00,0.00,VWS V14.01,2013-12-21 00:38:00,
2013-12-20 19:43:00,76.0,70.1,30.15,ENE,67,4.0,7.0,82,0.00,,FEW021,0.00,0.00,VWS V14.01,2013-12-21 00:43:00,
2013-12-20 19:47:00,76.0,70.1,30.15,ESE,109,0.0,6.0,82,0.00,,FEW021,0.00,0.00,VWS V14.01,2013-12-21 00:47:00,
2013-12-20 19:52:00,76.0,70.1,30.15,NE,46,1.0,6.0,82,0.00,,FEW021,0.00,0.00,VWS V14.01,2013-12-21 00:52:00,
2013-12-20 19:57:00,76.0,70.1,30.15,ESE,118,3.0,5.0,82,0.00,,FEW021,0.00,0.00,VWS V14.01,2013-12-21 00:57:00,
2013-12-20 20:02:00,76.0,70.1,30.15,SE,132,0.0,5.0,82,0.00,,FEW021,0.00,0.00,VWS V14.01,2013-12-21 01:02:00,
2013-12-20 20:07:00,76.0,70.1,30.15,NE,53,4.0,7.0,82,0.00,,FEW021,0.00,0.00,VWS V14.01,2013-12-21 01:07:00,
2013-12-20 20:12:00,76.0,69.8,30.15,North,360,3.0,8.0,81,0.00,,FEW021,0.00,0.00,VWS V14.01,2013-12-21 01:12:00,
2013-12-20 20:17:00,76.0,69.8,30.16,East,84,2.0,5.0,81,0.00,,FEW021,0.00,0.00,VWS V14.01,2013-12-21 01:17:00,
2013-12-20 20:22:00,76.0,69.8,30.16,ENE,70,2.0,4.0,81,0.00,,FEW021,0.00,0.00,VWS V14.01,2013-12-21 01:22:00,
2013-12-20 20:27:00,75.9,69.7,30.16,East,89,2.0,4.0,81,0.00,,FEW021,0.00,0.00,VWS V14.01,2013-12-21 01:27:00,
2013-12-20 20:32:00,75.9,69.7,30.17,East,89,1.0,6.0,81,0.00,,FEW021,0.00,0.00,VWS V14.01,2013-12-21 01:32:00,
2013-12-20 20:37:00,75.9,69.7,30.17,ENE,76,2.0,7.0,81,0.00,,FEW021,0.00,0.00,VWS V14.01,2013-12-21 01:37:00,
2013-12-20 20:42:00,75.8,69.6,30.17,ENE,65,2.0,5.0,81,0.00,,FEW021,0.00,0.00,VWS V14.01,2013-12-21 01:42:00,
2013-12-20 20:47:00,75.8,69.6,30.17,NE,52,1.0,5.0,81,0.00,,FEW021,0.00,0.00,VWS V14.01,2013-12-21 01:47:00,
2013-12-20 20:52:00,75.8,69.6,30.17,East,90,0.0,6.0,81,0.00,,FEW021,0.00,0.00,VWS V14.01,2013-12-21 01:52:00,
2013-12-20 20:57:00,75.7,69.8,30.17,NE,49,3.0,5.0,82,0.00,,FEW021,0.00,0.00,VWS V14.01,2013-12-21 01:57:00,
2013-12-20 21:02:00,75.8,69.9,30.17,East,79,3.0,7.0,82,0.00,,FEW021,0.00,0.00,VWS V14.01,2013-12-21 02:02:00,
2013-12-20 21:07:00,75.9,69.7,30.17,ENE,63,2.0,5.0,81,0.00,,FEW021,0.00,0.00,VWS V14.01,2013-12-21 02:07:00,
2013-12-20 21:12:00,76.0,69.8,30.17,NE,48,1.0,10.0,81,0.00,,FEW021,0.00,0.00,VWS V14.01,2013-12-21 02:12:00,
2013-12-20 21:17:00,76.0,69.8,30.17,East,86,2.0,5.0,81,0.00,,FEW021,0.00,0.00,VWS V14.01,2013-12-21 02:17:00,
2013-12-20 21:22:00,76.1,69.8,30.17,NNE,29,2.0,5.0,81,0.00,,FEW021,0.00,0.00,VWS V14.01,2013-12-21 02:22:00,
2013-12-20 21:27:00,76.0,69.8,30.17,ESE,119,4.0,5.0,81,0.00,,FEW021,0.00,0.00,VWS V14.01,2013-12-21 02:27:00,
2013-12-20 21:32:00,76.0,69.8,30.17,East,95,1.0,5.0,81,0.00,,FEW021,0.00,0.00,VWS V14.01,2013-12-21 02:32:00,
2013-12-20 21:37:00,75.9,69.7,30.17,ENE,73,2.0,5.0,81,0.00,,FEW021,0.00,0.00,VWS V14.01,2013-12-21 02:37:00,
2013-12-20 21:42:00,75.8,69.6,30.17,SSE,149,3.0,7.0,81,0.00,,FEW021,0.00,0.00,VWS V14.01,2013-12-21 02:42:00,
2013-12-20 21:47:00,75.8,69.6,30.17,East,91,1.0,6.0,81,0.00,,FEW021,0.00,0.00,VWS V14.01,2013-12-21 02:47:00,
2013-12-20 21:52:00,75.8,69.6,30.17,ESE,115,2.0,5.0,81,0.00,,FEW021,0.00,0.00,VWS V14.01,2013-12-21 02:52:00,
2013-12-20 21:57:00,75.8,69.6,30.17,NE,48,3.0,4.0,81,0.00,,FEW021,0.00,0.00,VWS V14.01,2013-12-21 02:57:00,
2013-12-20 22:02:00,75.8,69.6,30.17,NE,52,0.0,4.0,81,0.00,,FEW021,0.00,0.00,VWS V14.01,2013-12-21 03:02:00,
2013-12-20 22:07:00,75.8,69.6,30.17,ESE,118,1.0,5.0,81,0.00,,FEW021,0.00,0.00,VWS V14.01,2013-12-21 03:07:00,
2013-12-20 22:12:00,75.8,69.6,30.17,ENE,68,2.0,4.0,81,0.00,,FEW021,0.00,0.00,VWS V14.01,2013-12-21 03:12:00,
2013-12-20 22:17:00,75.8,69.9,30.17,ESE,119,1.0,3.0,82,0.00,,FEW021,0.00,0.00,VWS V14.01,2013-12-21 03:17:00,
2013-12-20 22:22:00,75.8,69.9,30.17,SE,134,3.0,5.0,82,0.00,,FEW021,0.00,0.00,VWS V14.01,2013-12-21 03:22:00,
2013-12-20 22:27:00,75.9,69.7,30.17,East,94,1.0,5.0,81,0.00,,FEW021,0.00,0.00,VWS V14.01,2013-12-21 03:27:00,
2013-12-20 22:32:00,76.0,69.8,30.17,SE,128,2.0,7.0,81,0.00,,FEW021,0.00,0.00,VWS V14.01,2013-12-21 03:32:00,
2013-12-20 22:37:00,76.0,69.8,30.17,ENE,68,1.0,5.0,81,0.00,,FEW021,0.00,0.00,VWS V14.01,2013-12-21 03:37:00,
2013-12-20 22:42:00,76.0,69.8,30.17,ESE,118,0.0,5.0,81,0.00,,FEW021,0.00,0.00,VWS V14.01,2013-12-21 03:42:00,
2013-12-20 22:47:00,75.9,70.0,30.17,SE,129,3.0,7.0,82,0.00,,FEW021,0.00,0.00,VWS V14.01,2013-12-21 03:47:00,
2013-12-20 22:52:00,75.8,69.9,30.17,East,86,3.0,5.0,82,0.00,,FEW021,0.00,0.00,VWS V14.01,2013-12-21 03:52:00,
2013-12-20 22:57:00,75.8,69.9,30.17,East,97,2.0,7.0,82,0.00,,FEW021,0.00,0.00,VWS V14.01,2013-12-21 03:57:00,
2013-12-20 23:02:00,75.8,69.9,30.17,NE,52,1.0,4.0,82,0.00,,FEW021,0.00,0.00,VWS V14.01,2013-12-21 04:02:00,
2013-12-20 23:07:00,75.7,69.8,30.17,ENE,73,3.0,5.0,82,0.00,,FEW021,0.00,0.00,VWS V14.01,2013-12-21 04:07:00,
2013-12-20 23:12:00,75.7,69.8,30.17,NE,44,1.0,7.0,82,0.00,,FEW021,0.00,0.00,VWS V14.01,2013-12-21 04:12:00,
2013-12-20 23:17:00,75.7,69.8,30.16,ENE,67,2.0,6.0,82,0.00,,FEW021,0.00,0.00,VWS V14.01,2013-12-21 04:17:00,
2013-12-20 23:22:00,75.7,69.8,30.16,ENE,67,2.0,9.0,82,0.00,,FEW021,0.00,0.00,VWS V14.01,2013-12-21 04:22:00,
2013-12-20 23:27:00,75.7,69.8,30.16,NE,38,4.0,7.0,82,0.00,,FEW021,0.00,0.00,VWS V14.01,2013-12-21 04:27:00,
2013-12-20 23:32:00,75.7,69.8,30.16,SSE,151,3.0,7.0,82,0.00,,FEW021,0.00,0.00,VWS V14.01,2013-12-21 04:32:00,
2013-12-20 23:37:00,75.7,70.2,30.16,NE,49,3.0,8.0,83,0.00,,FEW021,0.00,0.00,VWS V14.01,2013-12-21 04:37:00,
2013-12-20 23:42:00,75.7,70.2,30.16,ESE,117,0.0,5.0,83,0.00,,FEW021,0.00,0.00,VWS V14.01,2013-12-21 04:42:00,
2013-12-20 23:47:00,75.6,70.1,30.16,NE,42,4.0,6.0,83,0.00,,FEW021,0.00,0.00,VWS V14.01,2013-12-21 04:47:00,
2013-12-20 23:52:00,75.7,70.2,30.16,SE,136,1.0,8.0,83,0.00,,FEW021,0.00,0.00,VWS V14.01,2013-12-21 04:52:00,
2013-12-20 23:57:00,75.6,70.1,30.16,ENE,66,4.0,7.0,83,0.00,,FEW021,0.00,0.00,VWS V14.01,2013-12-21 04:57:00,